Time,TemperatureF,DewpointF,PressureIn,WindDirection,WindDirectionDegrees,WindSpeedMPH,WindSpeedGustMPH,Humidity,HourlyPrecipIn,Conditions,Clouds,dailyrainin,SolarRadiationWatts/m^2,SoftwareType,DateUTC
2013-03-24 00:00:00,30.2,19.1,30.31,WSW,241,0.0,0.0,63,0.00,,---,0.00,0.00,VWS V14.01,2013-03-24 07:00:00,
2013-03-24 00:05:00,30.0,19.3,30.31,WSW,241,0.0,0.0,64,0.00,,---,0.00,0.00,VWS V14.01,2013-03-24 07:05:00,
2013-03-24 00:10:00,29.8,19.5,30.31,WSW,241,0.0,0.0,65,0.00,,---,0.00,0.00,VWS V14.01,2013-03-24 07:10:00,
2013-03-24 00:15:00,29.6,19.3,30.30,WSW,241,0.0,0.0,65,0.00,,---,0.00,0.00,VWS V14.01,2013-03-24 07:15:00,
2013-03-24 00:20:00,29.4,19.5,30.30,WSW,242,2.0,2.0,66,0.00,,---,0.00,0.00,VWS V14.01,2013-03-24 07:20:00,
2013-03-24 00:25:00,29.3,19.7,30.30,WSW,242,1.0,2.0,67,0.00,,---,0.00,0.00,VWS V14.01,2013-03-24 07:25:00,
2013-03-24 00:30:00,29.1,19.5,30.30,WSW,242,1.0,1.0,67,0.00,,---,0.00,0.00,VWS V14.01,2013-03-24 07:30:00,
2013-03-24 00:35:00,29.0,19.4,30.31,WSW,242,0.0,2.0,67,0.00,,---,0.00,0.00,VWS V14.01,2013-03-24 07:35:00,
2013-03-24 00:40:00,29.1,19.5,30.30,WSW,242,0.0,2.0,67,0.00,,---,0.00,0.00,VWS V14.01,2013-03-24 07:40:00,
2013-03-24 00:45:00,29.0,19.8,30.30,WSW,242,0.0,2.0,68,0.00,,---,0.00,0.00,VWS V14.01,2013-03-24 07:45:00,
2013-03-24 00:50:00,28.9,19.7,30.30,WSW,242,0.0,2.0,68,0.00,,---,0.00,0.00,VWS V14.01,2013-03-24 07:50:00,
2013-03-24 00:55:00,28.8,19.9,30.30,WSW,242,0.0,2.0,69,0.00,,---,0.00,0.00,VWS V14.01,2013-03-24 07:55:00,
2013-03-24 01:00:00,28.6,19.7,30.30,WSW,242,0.0,0.0,69,0.00,,---,0.00,0.00,VWS V14.01,2013-03-24 08:00:00,
2013-03-24 01:05:00,28.5,20.0,30.30,WSW,242,0.0,0.0,70,0.00,,---,0.00,0.00,VWS V14.01,2013-03-24 08:05:00,
2013-03-24 01:10:00,28.3,19.8,30.30,WSW,242,0.0,0.0,70,0.00,,---,0.00,0.00,VWS V14.01,2013-03-24 08:10:00,
2013-03-24 01:15:00,28.2,20.0,30.30,WSW,242,0.0,0.0,71,0.00,,---,0.00,0.00,VWS V14.01,2013-03-24 08:15:00,
2013-03-24 01:20:00,28.1,19.9,30.30,WSW,242,0.0,0.0,71,0.00,,---,0.00,0.00,VWS V14.01,2013-03-24 08:20:00,
2013-03-24 01:25:00,28.0,19.8,30.30,WSW,242,0.0,0.0,71,0.00,,---,0.00,0.00,VWS V14.01,2013-03-24 08:25:00,
2013-03-24 01:30:00,28.0,19.8,30.30,WSW,242,0.0,0.0,71,0.00,,---,0.00,0.00,VWS V14.01,2013-03-24 08:30:00,
2013-03-24 01:35:00,28.0,20.2,30.30,WSW,242,0.0,0.0,72,0.00,,---,0.00,0.00,VWS V14.01,2013-03-24 08:35:00,
2013-03-24 01:40:00,28.0,20.2,30.30,WSW,242,0.0,0.0,72,0.00,,---,0.00,0.00,VWS V14.01,2013-03-24 08:40:00,
2013-03-24 01:45:00,28.1,20.2,30.30,WSW,242,0.0,0.0,72,0.00,,---,0.00,0.00,VWS V14.01,2013-03-24 08:45:00,
2013-03-24 01:50:00,28.1,20.2,30.30,WSW,242,0.0,0.0,72,0.00,,---,0.00,0.00,VWS V14.01,2013-03-24 08:50:00,
2013-03-24 01:55:00,28.0,20.2,30.30,WSW,242,0.0,0.0,72,0.00,,---,0.00,0.00,VWS V14.01,2013-03-24 08:55:00,
2013-03-24 02:00:00,28.0,20.5,30.30,WSW,242,0.0,0.0,73,0.00,,---,0.00,0.00,VWS V14.01,2013-03-24 09:00:00,
2013-03-24 02:05:00,28.1,20.6,30.30,WSW,242,0.0,0.0,73,0.00,,---,0.00,0.00,VWS V14.01,2013-03-24 09:05:00,
2013-03-24 02:10:00,28.2,20.7,30.30,WSW,242,0.0,0.0,73,0.00,,---,0.00,0.00,VWS V14.01,2013-03-24 09:10:00,
2013-03-24 02:15:00,28.3,21.1,30.30,WSW,242,0.0,0.0,74,0.00,,---,0.00,0.00,VWS V14.01,2013-03-24 09:15:00,
2013-03-24 02:20:00,28.5,21.0,30.30,WSW,242,0.0,0.0,73,0.00,,---,0.00,0.00,VWS V14.01,2013-03-24 09:20:00,
2013-03-24 02:25:00,28.7,21.1,30.29,WSW,242,0.0,0.0,73,0.00,,---,0.00,0.00,VWS V14.01,2013-03-24 09:25:00,
2013-03-24 02:30:00,28.8,21.2,30.29,WSW,242,0.0,0.0,73,0.00,,---,0.00,0.00,VWS V14.01,2013-03-24 09:30:00,
2013-03-24 02:35:00,28.9,21.0,30.30,WSW,242,0.0,0.0,72,0.00,,---,0.00,0.00,VWS V14.01,2013-03-24 09:35:00,
2013-03-24 02:40:00,29.0,21.1,30.29,SSW,193,2.0,2.0,72,0.00,,---,0.00,0.00,VWS V14.01,2013-03-24 09:40:00,
2013-03-24 02:45:00,29.0,21.1,30.30,SSW,193,0.0,2.0,72,0.00,,---,0.00,0.00,VWS V14.01,2013-03-24 09:45:00,
2013-03-24 02:50:00,29.1,20.9,30.30,SSW,193,0.0,2.0,71,0.00,,---,0.00,0.00,VWS V14.01,2013-03-24 09:50:00,
2013-03-24 02:55:00,29.1,21.2,30.30,SSW,193,0.0,2.0,72,0.00,,---,0.00,0.00,VWS V14.01,2013-03-24 09:55:00,
2013-03-24 03:00:00,29.0,20.8,30.30,SSW,193,0.0,0.0,71,0.00,,---,0.00,0.00,VWS V14.01,2013-03-24 10:00:00,
2013-03-24 03:05:00,29.2,21.0,30.29,SSW,193,0.0,0.0,71,0.00,,---,0.00,0.00,VWS V14.01,2013-03-24 10:05:00,
2013-03-24 03:10:00,29.2,21.0,30.29,SSW,193,0.0,0.0,71,0.00,,---,0.00,0.00,VWS V14.01,2013-03-24 10:10:00,
2013-03-24 03:15:00,29.2,21.0,30.29,SSW,193,0.0,0.0,71,0.00,,---,0.00,0.00,VWS V14.01,2013-03-24 10:15:00,
2013-03-24 03:20:00,29.2,21.0,30.30,SSW,193,0.0,0.0,71,0.00,,---,0.00,0.00,VWS V14.01,2013-03-24 10:20:00,
2013-03-24 03:25:00,29.2,21.0,30.29,SSW,193,0.0,0.0,71,0.00,,---,0.00,0.00,VWS V14.01,2013-03-24 10:25:00,
2013-03-24 03:30:00,29.2,20.6,30.30,SSW,193,0.0,0.0,70,0.00,,---,0.00,0.00,VWS V14.01,2013-03-24 10:30:00,
2013-03-24 03:35:00,29.2,21.0,30.29,SSW,193,0.0,0.0,71,0.00,,---,0.00,0.00,VWS V14.01,2013-03-24 10:35:00,
2013-03-24 03:40:00,29.2,20.6,30.30,SSW,193,0.0,0.0,70,0.00,,---,0.00,0.00,VWS V14.01,2013-03-24 10:40:00,
2013-03-24 03:45:00,29.4,20.5,30.29,SSW,205,2.0,2.0,69,0.00,,---,0.00,0.00,VWS V14.01,2013-03-24 10:45:00,
2013-03-24 03:50:00,29.5,20.6,30.29,SSW,205,1.0,2.0,69,0.00,,---,0.00,0.00,VWS V14.01,2013-03-24 10:50:00,
2013-03-24 03:55:00,29.5,20.6,30.29,SW,220,2.0,2.0,69,0.00,,---,0.00,0.00,VWS V14.01,2013-03-24 10:55:00,
2013-03-24 04:00:00,29.4,20.5,30.29,SW,220,0.0,2.0,69,0.00,,---,0.00,0.00,VWS V14.01,2013-03-24 11:00:00,
2013-03-24 04:05:00,29.3,20.4,30.29,SW,220,0.0,2.0,69,0.00,,---,0.00,0.00,VWS V14.01,2013-03-24 11:05:00,
2013-03-24 04:10:00,29.2,20.6,30.29,SW,220,0.0,2.0,70,0.00,,---,0.00,0.00,VWS V14.01,2013-03-24 11:10:00,
2013-03-24 04:15:00,29.0,20.8,30.28,SW,220,0.0,2.0,71,0.00,,---,0.00,0.00,VWS V14.01,2013-03-24 11:15:00,
2013-03-24 04:20:00,28.6,20.4,30.28,SW,220,0.0,2.0,71,0.00,,---,0.00,0.00,VWS V14.01,2013-03-24 11:20:00,
2013-03-24 04:25:00,28.2,20.4,30.28,SW,220,0.0,2.0,72,0.00,,---,0.00,0.00,VWS V14.01,2013-03-24 11:25:00,
2013-03-24 04:30:00,28.0,20.5,30.29,SW,220,0.0,2.0,73,0.00,,---,0.00,0.00,VWS V14.01,2013-03-24 11:30:00,
2013-03-24 04:35:00,27.8,20.6,30.28,SW,220,0.0,0.0,74,0.00,,---,0.00,0.00,VWS V14.01,2013-03-24 11:35:00,
2013-03-24 04:40:00,27.5,20.3,30.29,SW,220,0.0,0.0,74,0.00,,---,0.00,0.00,VWS V14.01,2013-03-24 11:40:00,
2013-03-24 04:45:00,27.4,20.2,30.29,SW,220,0.0,0.0,74,0.00,,---,0.00,0.00,VWS V14.01,2013-03-24 11:45:00,
2013-03-24 04:50:00,27.2,20.3,30.28,SW,220,0.0,0.0,75,0.00,,---,0.00,0.00,VWS V14.01,2013-03-24 11:50:00,
2013-03-24 04:55:00,26.9,20.0,30.28,SW,220,0.0,0.0,75,0.00,,---,0.00,0.00,VWS V14.01,2013-03-24 11:55:00,
2013-03-24 05:00:00,26.8,20.3,30.28,SW,220,0.0,0.0,76,0.00,,---,0.00,0.00,VWS V14.01,2013-03-24 12:00:00,
2013-03-24 05:05:00,26.7,20.2,30.28,SW,220,0.0,0.0,76,0.00,,---,0.00,0.00,VWS V14.01,2013-03-24 12:05:00,
2013-03-24 05:10:00,26.5,20.0,30.28,SW,220,0.0,0.0,76,0.00,,---,0.00,0.00,VWS V14.01,2013-03-24 12:10:00,
2013-03-24 05:15:00,26.4,20.2,30.28,SW,220,0.0,0.0,77,0.00,,---,0.00,0.00,VWS V14.01,2013-03-24 12:15:00,
2013-03-24 05:20:00,26.3,20.1,30.28,SW,220,0.0,0.0,77,0.00,,---,0.00,0.00,VWS V14.01,2013-03-24 12:20:00,
2013-03-24 05:25:00,26.1,19.9,30.29,SW,220,0.0,0.0,77,0.00,,---,0.00,0.00,VWS V14.01,2013-03-24 12:25:00,
2013-03-24 05:30:00,26.1,20.2,30.29,SW,220,0.0,0.0,78,0.00,,---,0.00,0.00,VWS V14.01,2013-03-24 12:30:00,
2013-03-24 05:35:00,26.0,20.1,30.29,SW,220,0.0,0.0,78,0.00,,---,0.00,0.00,VWS V14.01,2013-03-24 12:35:00,
2013-03-24 05:40:00,26.0,20.1,30.28,SW,220,0.0,0.0,78,0.00,,---,0.00,0.00,VWS V14.01,2013-03-24 12:40:00,
2013-03-24 05:45:00,25.9,20.0,30.29,SW,220,0.0,0.0,78,0.00,,---,0.00,0.00,VWS V14.01,2013-03-24 12:45:00,
2013-03-24 05:50:00,25.9,20.3,30.29,SW,220,0.0,0.0,79,0.00,,---,0.00,0.00,VWS V14.01,2013-03-24 12:50:00,
2013-03-24 05:55:00,26.0,20.4,30.29,SW,220,0.0,0.0,79,0.00,,---,0.00,0.00,VWS V14.01,2013-03-24 12:55:00,
2013-03-24 06:00:00,26.0,20.4,30.29,SW,220,0.0,0.0,79,0.00,,---,0.00,0.00,VWS V14.01,2013-03-24 13:00:00,
2013-03-24 06:05:00,26.0,20.1,30.29,SW,220,0.0,0.0,78,0.00,,---,0.00,0.00,VWS V14.01,2013-03-24 13:05:00,
2013-03-24 06:10:00,25.9,20.0,30.29,SW,220,0.0,0.0,78,0.00,,---,0.00,0.00,VWS V14.01,2013-03-24 13:10:00,
2013-03-24 06:15:00,25.9,20.0,30.29,SW,220,0.0,0.0,78,0.00,,---,0.00,0.00,VWS V14.01,2013-03-24 13:15:00,
2013-03-24 06:20:00,25.9,20.3,30.29,SW,220,0.0,0.0,79,0.00,,---,0.00,0.00,VWS V14.01,2013-03-24 13:20:00,
2013-03-24 06:25:00,25.8,20.2,30.29,SW,220,0.0,0.0,79,0.00,,---,0.00,0.00,VWS V14.01,2013-03-24 13:25:00,
2013-03-24 06:30:00,25.8,20.2,30.29,SW,220,0.0,0.0,79,0.00,,---,0.00,0.00,VWS V14.01,2013-03-24 13:30:00,
2013-03-24 06:35:00,25.8,20.2,30.29,SW,220,0.0,0.0,79,0.00,,---,0.00,0.00,VWS V14.01,2013-03-24 13:35:00,
2013-03-24 06:40:00,25.7,20.4,30.29,SW,220,0.0,0.0,80,0.00,,---,0.00,0.00,VWS V14.01,2013-03-24 13:40:00,
2013-03-24 06:45:00,25.7,20.4,30.29,SW,220,0.0,0.0,80,0.00,,---,0.00,0.00,VWS V14.01,2013-03-24 13:45:00,
2013-03-24 06:50:00,25.7,20.4,30.29,SW,220,0.0,0.0,80,0.00,,---,0.00,0.00,VWS V14.01,2013-03-24 13:50:00,
2013-03-24 06:55:00,25.7,20.4,30.29,SW,220,0.0,0.0,80,0.00,,---,0.00,0.00,VWS V14.01,2013-03-24 13:55:00,
2013-03-24 07:00:00,25.7,20.4,30.29,SW,220,0.0,0.0,80,0.00,,---,0.00,0.00,VWS V14.01,2013-03-24 14:00:00,
2013-03-24 07:05:00,25.7,20.4,30.29,SW,220,0.0,0.0,80,0.00,,---,0.00,5.00,VWS V14.01,2013-03-24 14:05:00,
2013-03-24 07:10:00,25.8,20.5,30.29,SW,220,0.0,0.0,80,0.00,,---,0.00,9.00,VWS V14.01,2013-03-24 14:10:00,
2013-03-24 07:15:00,25.9,20.6,30.29,SW,220,0.0,0.0,80,0.00,,---,0.00,12.00,VWS V14.01,2013-03-24 14:15:00,
2013-03-24 07:20:00,26.0,21.0,30.29,SW,220,0.0,0.0,81,0.00,,---,0.00,18.00,VWS V14.01,2013-03-24 14:20:00,
2013-03-24 07:25:00,26.2,21.2,30.28,SW,220,0.0,0.0,81,0.00,,---,0.00,21.00,VWS V14.01,2013-03-24 14:25:00,
2013-03-24 07:30:00,26.4,21.4,30.29,SW,220,0.0,0.0,81,0.00,,---,0.00,28.00,VWS V14.01,2013-03-24 14:30:00,
2013-03-24 07:35:00,26.5,21.5,30.28,SW,220,0.0,0.0,81,0.00,,---,0.00,33.00,VWS V14.01,2013-03-24 14:35:00,
2013-03-24 07:40:00,26.7,21.7,30.28,SW,220,0.0,0.0,81,0.00,,---,0.00,44.00,VWS V14.01,2013-03-24 14:40:00,
2013-03-24 07:45:00,27.0,21.7,30.28,SW,220,0.0,0.0,80,0.00,,---,0.00,49.00,VWS V14.01,2013-03-24 14:45:00,
2013-03-24 07:50:00,27.2,21.9,30.28,SW,220,0.0,0.0,80,0.00,,---,0.00,51.00,VWS V14.01,2013-03-24 14:50:00,
2013-03-24 07:55:00,27.3,21.7,30.28,SW,220,0.0,0.0,79,0.00,,---,0.00,47.00,VWS V14.01,2013-03-24 14:55:00,
2013-03-24 08:00:00,27.4,22.0,30.28,SW,220,0.0,0.0,80,0.00,,---,0.00,44.00,VWS V14.01,2013-03-24 15:00:00,
2013-03-24 08:05:00,27.5,22.1,30.28,SW,220,0.0,0.0,80,0.00,,---,0.00,62.00,VWS V14.01,2013-03-24 15:05:00,
2013-03-24 08:10:00,27.7,22.0,30.29,SW,220,0.0,0.0,79,0.00,,---,0.00,95.00,VWS V14.01,2013-03-24 15:10:00,
2013-03-24 08:15:00,27.9,21.6,30.29,SW,220,0.0,0.0,77,0.00,,---,0.00,98.00,VWS V14.01,2013-03-24 15:15:00,
2013-03-24 08:20:00,28.2,21.9,30.29,SW,220,0.0,0.0,77,0.00,,---,0.00,88.00,VWS V14.01,2013-03-24 15:20:00,
2013-03-24 08:25:00,28.4,21.8,30.29,SW,220,0.0,0.0,76,0.00,,---,0.00,100.00,VWS V14.01,2013-03-24 15:25:00,
2013-03-24 08:30:00,28.6,21.4,30.29,SW,220,0.0,0.0,74,0.00,,---,0.00,105.00,VWS V14.01,2013-03-24 15:30:00,
2013-03-24 08:35:00,28.8,21.9,30.28,SW,220,0.0,0.0,75,0.00,,---,0.00,120.00,VWS V14.01,2013-03-24 15:35:00,
2013-03-24 08:40:00,29.0,21.8,30.28,SSE,163,1.0,2.0,74,0.00,,---,0.00,139.00,VWS V14.01,2013-03-24 15:40:00,
2013-03-24 08:45:00,29.3,22.4,30.28,SSE,160,1.0,3.0,75,0.00,,---,0.00,220.00,VWS V14.01,2013-03-24 15:45:00,
2013-03-24 08:50:00,29.7,22.4,30.29,South,189,3.0,3.0,74,0.00,,---,0.00,265.00,VWS V14.01,2013-03-24 15:50:00,
2013-03-24 08:55:00,30.0,22.4,30.29,SW,217,2.0,3.0,73,0.00,,---,0.00,232.00,VWS V14.01,2013-03-24 15:55:00,
2013-03-24 09:00:00,30.3,22.4,30.29,South,186,0.0,3.0,72,0.00,,---,0.00,202.00,VWS V14.01,2013-03-24 16:00:00,
2013-03-24 09:05:00,30.6,22.7,30.29,South,178,0.0,2.0,72,0.00,,---,0.00,206.00,VWS V14.01,2013-03-24 16:05:00,
2013-03-24 09:10:00,31.0,22.4,30.29,SSW,197,0.0,2.0,70,0.00,,---,0.00,197.00,VWS V14.01,2013-03-24 16:10:00,
2013-03-24 09:15:00,31.2,22.6,30.29,South,190,1.0,2.0,70,0.00,,---,0.00,160.00,VWS V14.01,2013-03-24 16:15:00,
2013-03-24 09:20:00,31.5,22.5,30.29,South,170,2.0,2.0,69,0.00,,---,0.00,121.00,VWS V14.01,2013-03-24 16:20:00,
2013-03-24 09:25:00,31.6,22.3,30.29,SSE,147,0.0,3.0,68,0.00,,---,0.00,113.00,VWS V14.01,2013-03-24 16:25:00,
2013-03-24 09:30:00,31.7,22.7,30.29,SSE,147,0.0,3.0,69,0.00,,---,0.00,116.00,VWS V14.01,2013-03-24 16:30:00,
2013-03-24 09:35:00,31.8,22.5,30.29,SSE,148,0.0,1.0,68,0.00,,---,0.00,148.00,VWS V14.01,2013-03-24 16:35:00,
2013-03-24 09:40:00,31.9,22.5,30.29,SSE,148,0.0,2.0,68,0.00,,---,0.00,137.00,VWS V14.01,2013-03-24 16:40:00,
2013-03-24 09:45:00,31.9,22.5,30.29,SW,231,0.0,2.0,68,0.00,,---,0.00,155.00,VWS V14.01,2013-03-24 16:45:00,
2013-03-24 09:50:00,32.0,22.6,30.29,SW,227,0.0,2.0,68,0.00,,---,0.00,188.00,VWS V14.01,2013-03-24 16:50:00,
2013-03-24 09:55:00,32.2,23.2,30.28,SSE,154,0.0,3.0,69,0.00,,---,0.00,243.00,VWS V14.01,2013-03-24 16:55:00,
2013-03-24 10:00:00,32.5,23.1,30.28,SSW,206,2.0,3.0,68,0.00,,---,0.00,202.00,VWS V14.01,2013-03-24 17:00:00,
2013-03-24 10:05:00,32.7,23.0,30.28,WSW,239,0.0,2.0,67,0.00,,---,0.00,267.00,VWS V14.01,2013-03-24 17:05:00,
2013-03-24 10:10:00,32.9,22.8,30.28,SW,225,2.0,3.0,66,0.00,,---,0.00,269.00,VWS V14.01,2013-03-24 17:10:00,
2013-03-24 10:15:00,33.1,23.0,30.28,SSE,155,2.0,3.0,66,0.00,,---,0.00,295.00,VWS V14.01,2013-03-24 17:15:00,
2013-03-24 10:20:00,33.4,23.6,30.28,SE,129,1.0,3.0,67,0.00,,---,0.00,330.00,VWS V14.01,2013-03-24 17:20:00,
2013-03-24 10:25:00,33.8,23.7,30.28,ENE,78,1.0,3.0,66,0.00,,---,0.00,315.00,VWS V14.01,2013-03-24 17:25:00,
2013-03-24 10:30:00,34.2,23.7,30.28,SW,219,0.0,3.0,65,0.00,,---,0.00,309.00,VWS V14.01,2013-03-24 17:30:00,
2013-03-24 10:35:00,34.4,23.5,30.28,WSW,240,1.0,4.0,64,0.00,,---,0.00,343.00,VWS V14.01,2013-03-24 17:35:00,
2013-03-24 10:40:00,34.6,23.3,30.28,SW,236,0.0,4.0,63,0.00,,---,0.00,306.00,VWS V14.01,2013-03-24 17:40:00,
2013-03-24 10:45:00,34.7,23.8,30.28,SSW,205,2.0,5.0,64,0.00,,---,0.00,339.00,VWS V14.01,2013-03-24 17:45:00,
2013-03-24 10:50:00,35.0,23.7,30.28,South,178,2.0,5.0,63,0.00,,---,0.00,330.00,VWS V14.01,2013-03-24 17:50:00,
2013-03-24 10:55:00,35.3,23.6,30.28,SSW,204,2.0,5.0,62,0.00,,---,0.00,329.00,VWS V14.01,2013-03-24 17:55:00,
2013-03-24 11:00:00,35.6,23.5,30.28,SSE,161,2.0,5.0,61,0.00,,---,0.00,230.00,VWS V14.01,2013-03-24 18:00:00,
2013-03-24 11:05:00,35.8,24.1,30.28,SSE,160,2.0,4.0,62,0.00,,---,0.00,218.00,VWS V14.01,2013-03-24 18:05:00,
2013-03-24 11:10:00,36.2,24.1,30.27,SSE,167,1.0,4.0,61,0.00,,---,0.00,287.00,VWS V14.01,2013-03-24 18:10:00,
2013-03-24 11:15:00,36.5,23.5,30.27,SSE,153,0.0,4.0,59,0.00,,---,0.00,606.00,VWS V14.01,2013-03-24 18:15:00,
2013-03-24 11:20:00,36.8,24.2,30.27,SE,144,5.0,5.0,60,0.00,,---,0.00,348.00,VWS V14.01,2013-03-24 18:20:00,
2013-03-24 11:25:00,37.1,23.7,30.27,SSE,161,3.0,5.0,58,0.00,,---,0.00,334.00,VWS V14.01,2013-03-24 18:25:00,
2013-03-24 11:30:00,37.4,24.0,30.26,SE,144,2.0,5.0,58,0.00,,---,0.00,497.00,VWS V14.01,2013-03-24 18:30:00,
2013-03-24 11:35:00,37.7,23.9,30.26,South,177,3.0,5.0,57,0.00,,---,0.00,793.00,VWS V14.01,2013-03-24 18:35:00,
2013-03-24 11:40:00,37.9,24.0,30.26,NNE,19,0.0,5.0,57,0.00,,---,0.00,633.00,VWS V14.01,2013-03-24 18:40:00,
2013-03-24 11:45:00,38.2,24.3,30.26,SSW,211,0.0,5.0,57,0.00,,---,0.00,726.00,VWS V14.01,2013-03-24 18:45:00,
2013-03-24 11:50:00,38.8,24.5,30.25,SSE,168,3.0,5.0,56,0.00,,---,0.00,327.00,VWS V14.01,2013-03-24 18:50:00,
2013-03-24 11:55:00,39.2,24.4,30.25,SSE,154,3.0,5.0,55,0.00,,---,0.00,329.00,VWS V14.01,2013-03-24 18:55:00,
2013-03-24 12:00:00,39.5,25.1,30.26,SW,225,1.0,5.0,56,0.00,,---,0.00,536.00,VWS V14.01,2013-03-24 19:00:00,
2013-03-24 12:05:00,40.0,24.7,30.26,SSE,149,4.0,5.0,54,0.00,,---,0.00,575.00,VWS V14.01,2013-03-24 19:05:00,
2013-03-24 12:10:00,40.4,24.2,30.26,SSW,212,0.0,5.0,52,0.00,,---,0.00,578.00,VWS V14.01,2013-03-24 19:10:00,
2013-03-24 12:15:00,40.6,24.4,30.26,South,174,2.0,5.0,52,0.00,,---,0.00,555.00,VWS V14.01,2013-03-24 19:15:00,
2013-03-24 12:20:00,40.8,24.5,30.26,South,185,2.0,5.0,52,0.00,,---,0.00,364.00,VWS V14.01,2013-03-24 19:20:00,
2013-03-24 12:25:00,40.7,24.0,30.25,WSW,245,5.0,5.0,51,0.00,,---,0.00,622.00,VWS V14.01,2013-03-24 19:25:00,
2013-03-24 12:30:00,40.4,23.7,30.25,South,182,2.0,5.0,51,0.00,,---,0.00,737.00,VWS V14.01,2013-03-24 19:30:00,
2013-03-24 12:35:00,40.9,24.6,30.25,South,190,1.0,4.0,52,0.00,,---,0.00,775.00,VWS V14.01,2013-03-24 19:35:00,
2013-03-24 12:40:00,41.6,24.8,30.25,SW,219,4.0,5.0,51,0.00,,---,0.00,821.00,VWS V14.01,2013-03-24 19:40:00,
2013-03-24 12:45:00,42.0,24.2,30.25,SW,229,1.0,6.0,49,0.00,,---,0.00,835.00,VWS V14.01,2013-03-24 19:45:00,
2013-03-24 12:50:00,42.0,24.7,30.25,SW,221,3.0,7.0,50,0.00,,---,0.00,795.00,VWS V14.01,2013-03-24 19:50:00,
2013-03-24 12:54:00,42.2,25.4,30.24,NW,317,0.0,7.0,51,0.00,,---,0.00,529.00,VWS V14.01,2013-03-24 19:54:00,
2013-03-24 12:59:00,42.6,24.8,30.24,WSW,239,1.0,7.0,49,0.00,,---,0.00,613.00,VWS V14.01,2013-03-24 19:59:00,
2013-03-24 13:04:00,42.4,24.1,30.24,SSE,150,1.0,5.0,48,0.00,,---,0.00,666.00,VWS V14.01,2013-03-24 20:04:00,
2013-03-24 13:09:00,42.7,25.9,30.24,SSW,203,4.0,9.0,51,0.00,,---,0.00,749.00,VWS V14.01,2013-03-24 20:09:00,
2013-03-24 13:14:00,43.1,24.8,30.24,SSE,161,3.0,9.0,48,0.00,,---,0.00,809.00,VWS V14.01,2013-03-24 20:14:00,
2013-03-24 13:19:00,43.7,25.3,30.24,SSE,156,5.0,9.0,48,0.00,,---,0.00,737.00,VWS V14.01,2013-03-24 20:19:00,
2013-03-24 13:24:00,44.4,26.0,30.24,South,169,5.0,9.0,48,0.00,,---,0.00,896.00,VWS V14.01,2013-03-24 20:24:00,
2013-03-24 13:29:00,45.0,25.0,30.24,WSW,239,0.0,9.0,45,0.00,,---,0.00,640.00,VWS V14.01,2013-03-24 20:29:00,
2013-03-24 13:34:00,44.6,25.6,30.23,East,94,1.0,5.0,47,0.00,,---,0.00,649.00,VWS V14.01,2013-03-24 20:34:00,
2013-03-24 13:39:00,44.8,25.8,30.23,SSE,157,2.0,5.0,47,0.00,,---,0.00,680.00,VWS V14.01,2013-03-24 20:39:00,
2013-03-24 13:44:00,45.5,25.9,30.23,WSW,244,5.0,5.0,46,0.00,,---,0.00,719.00,VWS V14.01,2013-03-24 20:44:00,
2013-03-24 13:49:00,46.0,25.9,30.23,South,174,1.0,6.0,45,0.00,,---,0.00,522.00,VWS V14.01,2013-03-24 20:49:00,
2013-03-24 13:54:00,46.3,26.1,30.23,SW,216,2.0,6.0,45,0.00,,---,0.00,548.00,VWS V14.01,2013-03-24 20:54:00,
2013-03-24 13:59:00,46.2,26.0,30.23,South,172,1.0,6.0,45,0.00,,---,0.00,654.00,VWS V14.01,2013-03-24 20:59:00,
2013-03-24 14:04:00,46.4,25.1,30.22,SSE,154,1.0,4.0,43,0.00,,---,0.00,584.00,VWS V14.01,2013-03-24 21:04:00,
2013-03-24 14:09:00,46.6,25.3,30.22,SSE,155,2.0,9.0,43,0.00,,---,0.00,513.00,VWS V14.01,2013-03-24 21:09:00,
2013-03-24 14:14:00,47.0,26.2,30.22,SSW,209,0.0,9.0,44,0.00,,---,0.00,541.00,VWS V14.01,2013-03-24 21:14:00,
2013-03-24 14:19:00,47.2,25.3,30.22,WSW,240,2.0,9.0,42,0.00,,---,0.00,561.00,VWS V14.01,2013-03-24 21:19:00,
2013-03-24 14:24:00,46.9,25.0,30.21,SW,217,4.0,9.0,42,0.00,,---,0.00,504.00,VWS V14.01,2013-03-24 21:24:00,
2013-03-24 14:29:00,46.5,24.7,30.21,SSW,198,1.0,9.0,42,0.00,,---,0.00,513.00,VWS V14.01,2013-03-24 21:29:00,
2013-03-24 14:34:00,46.3,25.0,30.21,SSE,147,4.0,7.0,43,0.00,,---,0.00,487.00,VWS V14.01,2013-03-24 21:34:00,
2013-03-24 14:39:00,46.8,26.0,30.21,South,182,4.0,7.0,44,0.00,,---,0.00,427.00,VWS V14.01,2013-03-24 21:39:00,
2013-03-24 14:44:00,47.0,25.7,30.21,East,92,6.0,7.0,43,0.00,,---,0.00,469.00,VWS V14.01,2013-03-24 21:44:00,
2013-03-24 14:49:00,46.9,26.1,30.20,SE,140,4.0,7.0,44,0.00,,---,0.00,541.00,VWS V14.01,2013-03-24 21:49:00,
2013-03-24 14:54:00,46.9,26.1,30.20,WSW,242,4.0,7.0,44,0.00,,---,0.00,339.00,VWS V14.01,2013-03-24 21:54:00,
2013-03-24 14:59:00,46.5,25.2,30.20,WSW,247,1.0,7.0,43,0.00,,---,0.00,330.00,VWS V14.01,2013-03-24 21:59:00,
2013-03-24 15:04:00,46.4,26.2,30.20,West,271,3.0,3.0,45,0.00,,---,0.00,297.00,VWS V14.01,2013-03-24 22:04:00,
2013-03-24 15:09:00,46.3,25.6,30.20,SSE,153,3.0,3.0,44,0.00,,---,0.00,257.00,VWS V14.01,2013-03-24 22:09:00,
2013-03-24 15:14:00,46.4,25.1,30.20,SSE,157,2.0,5.0,43,0.00,,---,0.00,250.00,VWS V14.01,2013-03-24 22:14:00,
2013-03-24 15:19:00,46.4,25.7,30.20,South,169,0.0,6.0,44,0.00,,---,0.00,272.00,VWS V14.01,2013-03-24 22:19:00,
2013-03-24 15:24:00,46.3,25.0,30.19,SSE,155,4.0,6.0,43,0.00,,---,0.00,281.00,VWS V14.01,2013-03-24 22:24:00,
2013-03-24 15:29:00,46.1,24.9,30.20,SW,233,0.0,6.0,43,0.00,,---,0.00,330.00,VWS V14.01,2013-03-24 22:29:00,
2013-03-24 15:34:00,45.8,25.7,30.20,SE,142,3.0,4.0,45,0.00,,---,0.00,425.00,VWS V14.01,2013-03-24 22:34:00,
2013-03-24 15:39:00,46.2,26.0,30.20,SSE,156,3.0,5.0,45,0.00,,---,0.00,485.00,VWS V14.01,2013-03-24 22:39:00,
2013-03-24 15:44:00,46.7,26.0,30.19,WSW,244,1.0,5.0,44,0.00,,---,0.00,840.00,VWS V14.01,2013-03-24 22:44:00,
2013-03-24 15:49:00,47.2,26.4,30.19,NW,318,1.0,7.0,44,0.00,,---,0.00,612.00,VWS V14.01,2013-03-24 22:49:00,
2013-03-24 15:54:00,47.7,26.9,30.19,SW,225,5.0,7.0,44,0.00,,---,0.00,585.00,VWS V14.01,2013-03-24 22:54:00,
2013-03-24 15:59:00,47.3,24.8,30.19,WSW,242,1.0,7.0,41,0.00,,---,0.00,476.00,VWS V14.01,2013-03-24 22:59:00,
2013-03-24 16:04:00,47.1,25.2,30.19,SW,231,2.0,7.0,42,0.00,,---,0.00,367.00,VWS V14.01,2013-03-24 23:04:00,
2013-03-24 16:09:00,47.3,26.0,30.19,SSE,156,2.0,7.0,43,0.00,,---,0.00,336.00,VWS V14.01,2013-03-24 23:09:00,
2013-03-24 16:14:00,47.9,26.5,30.19,WSW,241,3.0,7.0,43,0.00,,---,0.00,325.00,VWS V14.01,2013-03-24 23:14:00,
2013-03-24 16:19:00,47.9,26.5,30.19,SW,221,0.0,7.0,43,0.00,,---,0.00,302.00,VWS V14.01,2013-03-24 23:19:00,
2013-03-24 16:24:00,47.9,26.5,30.18,WSW,244,3.0,7.0,43,0.00,,---,0.00,330.00,VWS V14.01,2013-03-24 23:24:00,
2013-03-24 16:29:00,47.9,27.0,30.18,SSW,207,1.0,7.0,44,0.00,,---,0.00,292.00,VWS V14.01,2013-03-24 23:29:00,
2013-03-24 16:34:00,48.1,25.5,30.18,South,171,3.0,6.0,41,0.00,,---,0.00,297.00,VWS V14.01,2013-03-24 23:34:00,
2013-03-24 16:39:00,48.2,26.8,30.18,SSE,151,2.0,6.0,43,0.00,,---,0.00,336.00,VWS V14.01,2013-03-24 23:39:00,
2013-03-24 16:44:00,48.1,26.1,30.17,South,186,3.0,6.0,42,0.00,,---,0.00,267.00,VWS V14.01,2013-03-24 23:44:00,
2013-03-24 16:49:00,48.2,25.6,30.17,SW,227,0.0,6.0,41,0.00,,---,0.00,316.00,VWS V14.01,2013-03-24 23:49:00,
2013-03-24 16:54:00,47.6,26.2,30.17,SSW,207,4.0,6.0,43,0.00,,---,0.00,216.00,VWS V14.01,2013-03-24 23:54:00,
2013-03-24 16:59:00,47.2,25.3,30.18,SW,229,0.0,6.0,42,0.00,,---,0.00,181.00,VWS V14.01,2013-03-24 23:59:00,
2013-03-24 17:04:00,47.1,25.8,30.18,SSE,167,1.0,4.0,43,0.00,,---,0.00,200.00,VWS V14.01,2013-03-25 00:04:00,
2013-03-24 17:09:00,47.2,25.9,30.18,SSE,162,1.0,5.0,43,0.00,,---,0.00,229.00,VWS V14.01,2013-03-25 00:09:00,
2013-03-24 17:14:00,47.5,26.1,30.18,SSE,160,2.0,5.0,43,0.00,,---,0.00,162.00,VWS V14.01,2013-03-25 00:14:00,
2013-03-24 17:19:00,47.5,26.7,30.18,South,188,0.0,5.0,44,0.00,,---,0.00,151.00,VWS V14.01,2013-03-25 00:19:00,
2013-03-24 17:24:00,47.3,26.0,30.17,South,182,2.0,5.0,43,0.00,,---,0.00,148.00,VWS V14.01,2013-03-25 00:24:00,
2013-03-24 17:29:00,47.2,25.9,30.18,South,175,0.0,5.0,43,0.00,,---,0.00,139.00,VWS V14.01,2013-03-25 00:29:00,
2013-03-24 17:34:00,46.8,26.0,30.18,SW,215,4.0,6.0,44,0.00,,---,0.00,116.00,VWS V14.01,2013-03-25 00:34:00,
2013-03-24 17:39:00,46.0,25.9,30.18,SW,214,3.0,6.0,45,0.00,,---,0.00,114.00,VWS V14.01,2013-03-25 00:39:00,
2013-03-24 17:44:00,45.6,26.0,30.17,SW,223,5.0,6.0,46,0.00,,---,0.00,109.00,VWS V14.01,2013-03-25 00:44:00,
2013-03-24 17:49:00,44.9,25.9,30.17,WSW,247,4.0,9.0,47,0.00,,---,0.00,105.00,VWS V14.01,2013-03-25 00:49:00,
2013-03-24 17:54:00,44.4,26.0,30.17,West,275,4.0,9.0,48,0.00,,---,0.00,116.00,VWS V14.01,2013-03-25 00:54:00,
2013-03-24 17:59:00,44.0,26.6,30.17,SSW,211,5.0,9.0,50,0.00,,---,0.00,306.00,VWS V14.01,2013-03-25 00:59:00,
2013-03-24 18:04:00,44.2,26.3,30.17,SW,214,1.0,6.0,49,0.00,,---,0.00,241.00,VWS V14.01,2013-03-25 01:04:00,
2013-03-24 18:09:00,44.7,26.7,30.18,SSW,192,4.0,6.0,49,0.00,,---,0.00,120.00,VWS V14.01,2013-03-25 01:09:00,
2013-03-24 18:14:00,44.7,26.2,30.18,SW,224,2.0,7.0,48,0.00,,---,0.00,86.00,VWS V14.01,2013-03-25 01:14:00,
2013-03-24 18:19:00,44.2,26.3,30.17,SW,233,2.0,7.0,49,0.00,,---,0.00,70.00,VWS V14.01,2013-03-25 01:19:00,
2013-03-24 18:24:00,43.4,26.0,30.18,WSW,246,3.0,7.0,50,0.00,,---,0.00,65.00,VWS V14.01,2013-03-25 01:24:00,
2013-03-24 18:29:00,43.0,26.1,30.17,SW,226,2.0,7.0,51,0.00,,---,0.00,42.00,VWS V14.01,2013-03-25 01:29:00,
2013-03-24 18:34:00,42.8,25.9,30.17,SW,225,2.0,5.0,51,0.00,,---,0.00,40.00,VWS V14.01,2013-03-25 01:34:00,
2013-03-24 18:39:00,42.6,26.2,30.18,SW,215,0.0,5.0,52,0.00,,---,0.00,37.00,VWS V14.01,2013-03-25 01:39:00,
2013-03-24 18:44:00,42.5,26.1,30.17,WSW,240,3.0,5.0,52,0.00,,---,0.00,30.00,VWS V14.01,2013-03-25 01:44:00,
2013-03-24 18:49:00,42.4,26.5,30.17,SW,227,0.0,5.0,53,0.00,,---,0.00,26.00,VWS V14.01,2013-03-25 01:49:00,
2013-03-24 18:54:00,42.2,26.3,30.17,SW,223,2.0,5.0,53,0.00,,---,0.00,21.00,VWS V14.01,2013-03-25 01:54:00,
2013-03-24 18:59:00,42.0,26.1,30.17,SW,217,6.0,6.0,53,0.00,,---,0.00,16.00,VWS V14.01,2013-03-25 01:59:00,
2013-03-24 19:04:00,41.8,26.4,30.17,SSW,197,0.0,6.0,54,0.00,,---,0.00,12.00,VWS V14.01,2013-03-25 02:04:00,
2013-03-24 19:09:00,41.5,26.1,30.17,SSW,211,3.0,6.0,54,0.00,,---,0.00,7.00,VWS V14.01,2013-03-25 02:09:00,
2013-03-24 19:14:00,41.3,26.4,30.17,SW,234,3.0,6.0,55,0.00,,---,0.00,5.00,VWS V14.01,2013-03-25 02:14:00,
2013-03-24 19:19:00,41.0,26.1,30.17,South,180,2.0,6.0,55,0.00,,---,0.00,0.00,VWS V14.01,2013-03-25 02:19:00,
2013-03-24 19:24:00,40.7,25.8,30.17,SSW,206,2.0,6.0,55,0.00,,---,0.00,0.00,VWS V14.01,2013-03-25 02:24:00,
2013-03-24 19:29:00,40.5,25.6,30.17,SW,218,3.0,6.0,55,0.00,,---,0.00,0.00,VWS V14.01,2013-03-25 02:29:00,
2013-03-24 19:34:00,40.3,25.9,30.17,SW,214,0.0,4.0,56,0.00,,---,0.00,0.00,VWS V14.01,2013-03-25 02:34:00,
2013-03-24 19:39:00,40.2,26.6,30.17,SSW,205,1.0,4.0,58,0.00,,---,0.00,0.00,VWS V14.01,2013-03-25 02:39:00,
2013-03-24 19:44:00,40.1,26.1,30.17,South,189,3.0,5.0,57,0.00,,---,0.00,0.00,VWS V14.01,2013-03-25 02:44:00,
2013-03-24 19:49:00,39.9,25.9,30.17,WSW,238,1.0,5.0,57,0.00,,---,0.00,0.00,VWS V14.01,2013-03-25 02:49:00,
2013-03-24 19:54:00,39.8,25.8,30.17,South,170,2.0,5.0,57,0.00,,---,0.00,0.00,VWS V14.01,2013-03-25 02:54:00,
2013-03-24 19:59:00,39.6,26.1,30.17,SSW,194,1.0,5.0,58,0.00,,---,0.00,0.00,VWS V14.01,2013-03-25 02:59:00,
2013-03-24 20:04:00,39.6,26.1,30.17,SW,234,1.0,3.0,58,0.00,,---,0.00,0.00,VWS V14.01,2013-03-25 03:04:00,
2013-03-24 20:09:00,39.5,26.0,30.17,SSW,195,2.0,4.0,58,0.00,,---,0.00,0.00,VWS V14.01,2013-03-25 03:09:00,
2013-03-24 20:14:00,39.3,25.8,30.17,SSW,209,2.0,4.0,58,0.00,,---,0.00,0.00,VWS V14.01,2013-03-25 03:14:00,
2013-03-24 20:19:00,39.3,25.8,30.17,SSW,200,2.0,5.0,58,0.00,,---,0.00,0.00,VWS V14.01,2013-03-25 03:19:00,
2013-03-24 20:24:00,39.2,25.7,30.17,South,188,1.0,5.0,58,0.00,,---,0.00,0.00,VWS V14.01,2013-03-25 03:24:00,
2013-03-24 20:29:00,39.1,26.0,30.17,SSW,200,1.0,5.0,59,0.00,,---,0.00,0.00,VWS V14.01,2013-03-25 03:29:00,
2013-03-24 20:34:00,39.1,26.0,30.17,South,169,0.0,3.0,59,0.00,,---,0.00,0.00,VWS V14.01,2013-03-25 03:34:00,
2013-03-24 20:39:00,39.1,26.4,30.17,South,169,0.0,3.0,60,0.00,,---,0.00,0.00,VWS V14.01,2013-03-25 03:39:00,
2013-03-24 20:44:00,39.1,26.4,30.17,South,176,1.0,4.0,60,0.00,,---,0.00,0.00,VWS V14.01,2013-03-25 03:44:00,
2013-03-24 20:49:00,39.1,26.4,30.17,SSW,196,1.0,4.0,60,0.00,,---,0.00,0.00,VWS V14.01,2013-03-25 03:49:00,
2013-03-24 20:54:00,39.0,26.3,30.17,SSW,196,0.0,4.0,60,0.00,,---,0.00,0.00,VWS V14.01,2013-03-25 03:54:00,
2013-03-24 20:59:00,38.9,26.6,30.18,South,183,0.0,4.0,61,0.00,,---,0.00,0.00,VWS V14.01,2013-03-25 03:59:00,
2013-03-24 21:00:00,38.9,26.6,30.18,SSW,196,1.0,4.0,61,0.00,,---,0.00,0.00,VWS V14.01,2013-03-25 04:00:00,
2013-03-24 21:05:00,38.8,26.5,30.18,South,181,3.0,4.0,61,0.00,,---,0.00,0.00,VWS V14.01,2013-03-25 04:05:00,
2013-03-24 21:10:00,38.7,26.4,30.18,SSW,194,1.0,5.0,61,0.00,,---,0.00,0.00,VWS V14.01,2013-03-25 04:10:00,
2013-03-24 21:15:00,38.6,26.7,30.18,SSW,194,1.0,5.0,62,0.00,,---,0.00,0.00,VWS V14.01,2013-03-25 04:15:00,
2013-03-24 21:20:00,38.6,26.7,30.18,South,179,2.0,5.0,62,0.00,,---,0.00,0.00,VWS V14.01,2013-03-25 04:20:00,
2013-03-24 21:25:00,38.5,26.2,30.18,SSW,211,0.0,5.0,61,0.00,,---,0.00,0.00,VWS V14.01,2013-03-25 04:25:00,
2013-03-24 21:30:00,38.5,26.6,30.18,South,188,1.0,5.0,62,0.00,,---,0.00,0.00,VWS V14.01,2013-03-25 04:30:00,
2013-03-24 21:35:00,38.4,26.5,30.18,SSW,206,0.0,3.0,62,0.00,,---,0.00,0.00,VWS V14.01,2013-03-25 04:35:00,
2013-03-24 21:40:00,38.3,26.4,30.18,SW,219,0.0,3.0,62,0.00,,---,0.00,0.00,VWS V14.01,2013-03-25 04:40:00,
2013-03-24 21:45:00,38.2,26.3,30.18,SW,219,0.0,3.0,62,0.00,,---,0.00,0.00,VWS V14.01,2013-03-25 04:45:00,
2013-03-24 21:50:00,38.2,26.3,30.18,SW,216,0.0,3.0,62,0.00,,---,0.00,0.00,VWS V14.01,2013-03-25 04:50:00,
2013-03-24 21:55:00,38.1,26.6,30.18,South,190,0.0,3.0,63,0.00,,---,0.00,0.00,VWS V14.01,2013-03-25 04:55:00,
2013-03-24 22:00:00,38.1,26.6,30.18,South,186,0.0,3.0,63,0.00,,---,0.00,0.00,VWS V14.01,2013-03-25 05:00:00,
2013-03-24 22:05:00,38.0,26.5,30.18,South,180,0.0,1.0,63,0.00,,---,0.00,0.00,VWS V14.01,2013-03-25 05:05:00,
2013-03-24 22:10:00,38.0,26.5,30.18,South,180,0.0,1.0,63,0.00,,---,0.00,0.00,VWS V14.01,2013-03-25 05:10:00,
2013-03-24 22:15:00,37.9,26.5,30.18,South,184,0.0,2.0,63,0.00,,---,0.00,0.00,VWS V14.01,2013-03-25 05:15:00,
2013-03-24 22:20:00,37.9,26.5,30.18,SSW,195,0.0,3.0,63,0.00,,---,0.00,0.00,VWS V14.01,2013-03-25 05:20:00,
2013-03-24 22:25:00,37.8,26.4,30.18,SSW,192,1.0,3.0,63,0.00,,---,0.00,0.00,VWS V14.01,2013-03-25 05:25:00,
2013-03-24 22:30:00,37.8,26.7,30.17,SSW,198,0.0,3.0,64,0.00,,---,0.00,0.00,VWS V14.01,2013-03-25 05:30:00,
2013-03-24 22:35:00,37.7,26.6,30.17,SSW,202,0.0,1.0,64,0.00,,---,0.00,0.00,VWS V14.01,2013-03-25 05:35:00,
2013-03-24 22:40:00,37.6,26.5,30.17,South,178,0.0,2.0,64,0.00,,---,0.00,0.00,VWS V14.01,2013-03-25 05:40:00,
2013-03-24 22:45:00,37.4,26.4,30.17,SW,233,0.0,2.0,64,0.00,,---,0.00,0.00,VWS V14.01,2013-03-25 05:45:00,
2013-03-24 22:50:00,37.3,26.3,30.17,SW,233,0.0,2.0,64,0.00,,---,0.00,0.00,VWS V14.01,2013-03-25 05:50:00,
2013-03-24 22:55:00,37.2,26.2,30.17,SW,214,0.0,2.0,64,0.00,,---,0.00,0.00,VWS V14.01,2013-03-25 05:55:00,
2013-03-24 23:00:00,37.1,26.1,30.17,SSW,205,0.0,3.0,64,0.00,,---,0.00,0.00,VWS V14.01,2013-03-25 06:00:00,
2013-03-24 23:05:00,37.0,26.3,30.17,SSW,202,0.0,4.0,65,0.00,,---,0.00,0.00,VWS V14.01,2013-03-25 06:05:00,
2013-03-24 23:10:00,36.9,26.2,30.17,SW,216,0.0,4.0,65,0.00,,---,0.00,0.00,VWS V14.01,2013-03-25 06:10:00,
2013-03-24 23:15:00,36.9,26.2,30.16,SW,216,0.0,4.0,65,0.00,,---,0.00,0.00,VWS V14.01,2013-03-25 06:15:00,
2013-03-24 23:20:00,36.8,26.1,30.16,SW,216,0.0,4.0,65,0.00,,---,0.00,0.00,VWS V14.01,2013-03-25 06:20:00,
2013-03-24 23:25:00,36.8,26.1,30.17,SW,216,0.0,4.0,65,0.00,,---,0.00,0.00,VWS V14.01,2013-03-25 06:25:00,
2013-03-24 23:30:00,36.8,26.5,30.17,SW,216,0.0,4.0,66,0.00,,---,0.00,0.00,VWS V14.01,2013-03-25 06:30:00,
2013-03-24 23:35:00,36.6,26.3,30.17,SW,216,0.0,0.0,66,0.00,,---,0.00,0.00,VWS V14.01,2013-03-25 06:35:00,
2013-03-24 23:40:00,36.5,26.2,30.17,SW,216,0.0,0.0,66,0.00,,---,0.00,0.00,VWS V14.01,2013-03-25 06:40:00,
2013-03-24 23:45:00,36.5,26.2,30.17,SW,216,0.0,0.0,66,0.00,,---,0.00,0.00,VWS V14.01,2013-03-25 06:45:00,
2013-03-24 23:50:00,36.4,26.1,30.17,SW,216,0.0,0.0,66,0.00,,---,0.00,0.00,VWS V14.01,2013-03-25 06:50:00,
2013-03-24 23:55:00,36.3,26.4,30.17,SW,216,0.0,0.0,67,0.00,,---,0.00,0.00,VWS V14.01,2013-03-25 06:55:00,